Social login voor leden:
METAR EBOS 180550Z 13003KT 2800 BR NSC M02/M04 Q1024 TEMPO 1100 BCFG
TAF EBOS 180500Z 1806/1912 16003KT 2000 BR TEMPO 1806/1808 0400 FZFG BECMG 1808/1810 9999 NSW PROB40 1822/1906 4500 BR

NZVC is de eerste Belgische vliegclub met een erkenning als 'Approved Training Organisation (ATO)'

Sinds 3 maart 2015 is de Noordzee Vliegclub Oostende erkend door de Europese Unie en de Belgian Civil Aviation Authority als Approved Training Organisation (ATO). Hierbij zijn we de eerste vliegclub in België die voldoet aan de nieuwste en strengste Europese normen inzake organisatie, kwaliteit en veiligheid bij de opleiding tot Privaat Piloot (PPL).

 

Opleiding Piloot
Meevliegen
Visit Us
Agenda
Opleiding Piloot
Doopvluchten
Visit Us
Volgende activiteit
Noordzee Vliegclub - Nieuwpoortsesteenweg 947 8400 Oostende - Tel 059 30 04 79 - Dit e-mailadres wordt beveiligd tegen spambots. JavaScript dient ingeschakeld te zijn om het te bekijken.

 - Copyright 2017 ©